Estación de Colegual INIA

Ultimos registro cada 15 minutos 49
Estación Fecha / Hora Temperatura Humedad Lluvia Velocidad Dirección Radiación Presion
49 Colegual INIA 08-05-2026 12:00 8 92,5 0 1 20 121 1003
48 Colegual INIA 08-05-2026 11:45 7,9 94,5 0 0,8 64 132 1002
47 Colegual INIA 08-05-2026 11:30 7,5 96 0 1,1 67 92 1002
46 Colegual INIA 08-05-2026 11:15 7,5 95,4 0 1,9 64 80 1002
45 Colegual INIA 08-05-2026 11:00 7,4 95,5 0 1,3 69 113 1002
44 Colegual INIA 08-05-2026 10:45 7,2 96,8 0 0,6 59 102 1002
43 Colegual INIA 08-05-2026 10:30 7,1 97,7 0 1 72 87 1002
42 Colegual INIA 08-05-2026 10:15 7 97,7 0 0,5 64 69 1002
41 Colegual INIA 08-05-2026 10:00 7 98,2 0 0,2 29 65 1002
40 Colegual INIA 08-05-2026 09:45 6,7 98,5 0 0 52 82 1001
39 Colegual INIA 08-05-2026 09:30 6,4 98,3 0 0,2 60 72 1001
38 Colegual INIA 08-05-2026 09:15 6,3 98 0 0,2 63 56 1001
37 Colegual INIA 08-05-2026 09:00 6,2 98,4 0 0,1 64 48 1001
36 Colegual INIA 08-05-2026 08:45 6 98,8 0 0 71 37 1001
35 Colegual INIA 08-05-2026 08:30 6 99,1 0 0,1 59 20 1001
34 Colegual INIA 08-05-2026 08:15 5,9 99,4 0 0,3 1 10 1000
33 Colegual INIA 08-05-2026 08:00 5,9 99,8 0 0,2 0 3 1000
32 Colegual INIA 08-05-2026 07:45 5,9 99,6 0 0,1 355 1 1000
31 Colegual INIA 08-05-2026 07:30 5,9 99,5 0 0 337 0 1000
30 Colegual INIA 08-05-2026 07:15 5,9 99,7 0 0,3 358 0 1000
29 Colegual INIA 08-05-2026 07:00 5,8 99,6 0 0,1 345 0 1000
28 Colegual INIA 08-05-2026 06:45 5,7 99,5 0,1 0,1 334 0 1000
27 Colegual INIA 08-05-2026 06:30 5,8 99,4 0 0 342 0 999
26 Colegual INIA 08-05-2026 06:15 5,8 99,7 0 0 357 0 999
25 Colegual INIA 08-05-2026 06:00 6,1 99,8 0 0,6 342 0 999
24 Colegual INIA 08-05-2026 05:45 6,4 99,8 0 0,2 343 0 999
23 Colegual INIA 08-05-2026 05:30 6,4 99,6 0,1 0 326 0 999
22 Colegual INIA 08-05-2026 05:15 6,4 99,9 0 0 292 0 998
21 Colegual INIA 08-05-2026 05:00 6,3 99,5 0 0 0 0 998
20 Colegual INIA 08-05-2026 04:45 6,3 99,7 0 0 285 0 998
19 Colegual INIA 08-05-2026 04:30 6,2 99,6 0,1 0,2 297 0 999
18 Colegual INIA 08-05-2026 04:15 6,2 99,5 0 0,2 293 0 998
17 Colegual INIA 08-05-2026 04:00 6 99,4 0 0,2 286 0 998
16 Colegual INIA 08-05-2026 03:45 5,9 99,5 0 0,1 296 0 999
15 Colegual INIA 08-05-2026 03:30 5,8 99,4 0 0,7 270 0 998
14 Colegual INIA 08-05-2026 03:15 5,8 99,3 0,1 0,6 258 0 998
13 Colegual INIA 08-05-2026 03:00 5,7 99,1 0,1 1,6 275 0 999
12 Colegual INIA 08-05-2026 02:45 5,6 98,8 0,2 0,8 267 0 999
11 Colegual INIA 08-05-2026 02:30 5,6 98,4 0 1,3 286 0 999
10 Colegual INIA 08-05-2026 02:15 5,6 98,1 0 2 272 0 999
9 Colegual INIA 08-05-2026 02:00 5,6 98,4 0 2,6 263 0 998
8 Colegual INIA 08-05-2026 01:45 5,6 98,4 0 3 260 0 998
7 Colegual INIA 08-05-2026 01:30 5,6 98,5 0 2,8 263 0 998
6 Colegual INIA 08-05-2026 01:15 5,6 98,3 0 3,3 261 0 999
5 Colegual INIA 08-05-2026 01:00 5,5 98,5 0 3,4 262 0 999
4 Colegual INIA 08-05-2026 00:45 5,5 98,6 0,1 3,4 261 0 999
3 Colegual INIA 08-05-2026 00:30 5,6 98,4 0 3,3 269 0 999
2 Colegual INIA 08-05-2026 00:15 5,6 98,4 0,1 3 266 0 999
1 Colegual INIA 08-05-2026 00:00 5,6 98,3 0,1 3,2 264 0 999